{"data":{"norad_id":68052,"intl_designator":"2026-041N","name":"STARLINK-35808","alt_names":[],"object_type":"PAYLOAD","status":"ACTIVE","operator":null,"country":"US","launch_date":"2026-03-02","launch_site_code":"AFETR","launch_vehicle":null,"mission":null,"orbit_class":"UNKNOWN","rcs_meters":null,"size_class":null,"mass_kg":null,"dimensions":null,"purposes":["comms"],"wikipedia_slug":null,"has_3d_model":false,"image_url":null,"decayed_at":null,"tle_current":{"epoch":"2026-05-25T00:20:34.482336Z","epoch_age_seconds":69742,"freshness":"FRESH","line1":"1 68052U 26041N   26145.01428799  .00017528  00000+0  52853-3 0  9990","line2":"2 68052  53.1591  55.3793 0000536  56.7858 303.3196 15.34408293 13077","mean_motion":15.34408293,"eccentricity":5.36e-5,"inclination_deg":53.1591,"raan_deg":55.3793,"arg_perigee_deg":56.7858,"mean_anomaly_deg":303.3196,"bstar":0.00052853,"rev_number":1307,"period_min":93.847250863366,"perigee_km":462.31192405873,"apogee_km":463.04525949017,"semimajor_km":6840.8155917744,"source":"CELESTRAK","updated_at":"2026-05-25T13:38:21.812793Z"}}}